Station Historical Data
 
Daily Summary for June 18, 2019 Units:  Metric    English   Both
« Previous Day
Next Day »
Daily Weekly Monthly Yearly Custom
  Current: High: Low: Average:
Temperature: 17.5 °C 22.3 °C 17.2 °C 19.9 °C
Dew Point: 12.4 °C 15.2 °C 10.1 °C 12.7 °C
Humidity: 72% 82% 46% 64%
Wind Speed: 0.0km/h 9.7km/h 0.0km/h 2.9km/h
Wind Gust: 4.8km/h 24.1km/h - -
WindCalm - - SW
Pressure: 1013.1 hPa 1014.1 hPa 1012.8 hPa -
Precipitation: 0.0 mm      
Historical Graphs
 
 
Tabular Data for June 18, 2019
Time Temperature Dew Point Pressure Wind Wind Speed Wind Gust Humidity Rainfall Rate (Hourly) solar Conditions
00:00 22.1 °C 13.1 °C 1014.0 hPa SSW 8.0 km/h 22.5 km/h 57% 0.0 mm 0.00 W/m2 CLR
00:05 22.0 °C 12.8 °C 1014.1 hPa South 8.0 km/h 24.1 km/h 56% 0.0 mm 0.00 W/m2 CLR
00:10 21.9 °C 12.8 °C 1014.0 hPa South 9.7 km/h 20.9 km/h 56% 0.0 mm 0.00 W/m2 CLR
00:15 21.9 °C 13.1 °C 1014.0 hPa South 8.0 km/h 19.3 km/h 57% 0.0 mm 0.00 W/m2 CLR
00:20 21.9 °C 13.0 °C 1014.0 hPa South 8.0 km/h 19.3 km/h 57% 0.0 mm 0.00 W/m2 CLR
00:25 21.8 °C 12.9 °C 1014.1 hPa South 8.0 km/h 22.5 km/h 57% 0.0 mm 0.00 W/m2 CLR
00:30 21.8 °C 12.7 °C 1014.1 hPa SSW 8.0 km/h 19.3 km/h 56% 0.0 mm 0.00 W/m2 CLR
00:35 21.9 °C 12.4 °C 1014.1 hPa SSW 4.8 km/h 16.1 km/h 55% 0.0 mm 0.00 W/m2 CLR
00:40 21.9 °C 12.2 °C 1014.1 hPa SSW 4.8 km/h 16.1 km/h 54% 0.0 mm 0.00 W/m2 CLR
00:45 21.9 °C 11.9 °C 1014.1 hPa South 4.8 km/h 14.5 km/h 53% 0.0 mm 0.00 W/m2 CLR
00:50 21.9 °C 11.9 °C 1014.1 hPa SSW 8.0 km/h 16.1 km/h 53% 0.0 mm 0.00 W/m2 CLR
00:55 22.0 °C 11.4 °C 1014.0 hPa SSW 3.2 km/h 14.5 km/h 51% 0.0 mm 0.00 W/m2 CLR
01:00 22.1 °C 11.5 °C 1014.0 hPa SSW 3.2 km/h 11.3 km/h 51% 0.0 mm 0.00 W/m2 CLR
01:05 22.2 °C 11.2 °C 1013.9 hPa SW 3.2 km/h 9.7 km/h 50% 0.0 mm 0.00 W/m2 CLR
01:10 22.2 °C 10.7 °C 1013.9 hPa SW 3.2 km/h 14.5 km/h 48% 0.0 mm 0.00 W/m2 CLR
01:15 22.3 °C 10.7 °C 1013.8 hPa SW 1.6 km/h 8.0 km/h 48% 0.0 mm 0.00 W/m2 CLR
01:20 22.3 °C 10.7 °C 1013.7 hPa SSW 3.2 km/h 8.0 km/h 48% 0.0 mm 0.00 W/m2 CLR
01:25 22.2 °C 11.0 °C 1013.7 hPa SSW 1.6 km/h 4.8 km/h 49% 0.0 mm 0.00 W/m2 CLR
01:30 22.2 °C 10.6 °C 1013.7 hPa SW 1.6 km/h 9.7 km/h 48% 0.0 mm 0.00 W/m2 CLR
01:35 22.2 °C 10.3 °C 1013.7 hPa SSW 3.2 km/h 11.3 km/h 47% 0.0 mm 0.00 W/m2 CLR
01:40 22.3 °C 10.1 °C 1013.6 hPa South 3.2 km/h 11.3 km/h 46% 0.0 mm 0.00 W/m2 CLR
01:45 22.3 °C 10.1 °C 1013.6 hPa South 3.2 km/h 8.0 km/h 46% 0.0 mm 0.00 W/m2 CLR
01:50 22.3 °C 10.4 °C 1013.6 hPa South 8.0 km/h 11.3 km/h 47% 0.0 mm 0.00 W/m2 CLR
01:55 22.2 °C 10.4 °C 1013.5 hPa South 3.2 km/h 11.3 km/h 47% 0.0 mm 0.00 W/m2 CLR
02:00 22.1 °C 10.6 °C 1013.4 hPa South 4.8 km/h 11.3 km/h 48% 0.0 mm 0.00 W/m2 CLR
02:05 22.0 °C 11.1 °C 1013.3 hPa SSE 3.2 km/h 9.7 km/h 50% 0.0 mm 0.00 W/m2 CLR
02:10 21.9 °C 11.6 °C 1013.3 hPa ESE 3.2 km/h 6.4 km/h 52% 0.0 mm 0.00 W/m2 CLR
02:15 21.7 °C 12.3 °C 1013.3 hPa East 3.2 km/h 6.4 km/h 55% 0.0 mm 0.00 W/m2 CLR
02:20 21.4 °C 12.8 °C 1013.2 hPa East 3.2 km/h 8.0 km/h 58% 0.0 mm 0.00 W/m2 CLR
02:25 21.2 °C 12.8 °C 1013.2 hPa SE 3.2 km/h 6.4 km/h 59% 0.0 mm 0.00 W/m2 CLR
02:30 21.0 °C 12.9 °C 1013.2 hPa SE 4.8 km/h 8.0 km/h 60% 0.0 mm 0.00 W/m2 CLR
02:35 20.8 °C 13.1 °C 1013.2 hPa SE 3.2 km/h 9.7 km/h 61% 0.0 mm 0.00 W/m2 CLR
02:40 20.7 °C 13.1 °C 1013.2 hPa SE 3.2 km/h 6.4 km/h 62% 0.0 mm 0.00 W/m2 CLR
02:45 20.5 °C 13.2 °C 1013.2 hPa SE 3.2 km/h 6.4 km/h 63% 0.0 mm 0.00 W/m2 CLR
02:50 20.3 °C 13.3 °C 1013.2 hPa ESE 1.6 km/h 6.4 km/h 64% 0.0 mm 0.00 W/m2 CLR
02:55 20.2 °C 13.2 °C 1013.1 hPa ESE 1.6 km/h 4.8 km/h 64% 0.0 mm 0.00 W/m2 CLR
03:00 20.1 °C 13.3 °C 1013.1 hPa ESE 1.6 km/h 3.2 km/h 65% 0.0 mm 0.00 W/m2 CLR
03:05 20.1 °C 13.3 °C 1013.1 hPa Calm   3.2 km/h 65% 0.0 mm 0.00 W/m2 CLR
03:10 20.0 °C 13.2 °C 1013.1 hPa ESE 1.6 km/h 3.2 km/h 65% 0.0 mm 0.00 W/m2 CLR
03:15 19.9 °C 13.4 °C 1013.1 hPa ESE 1.6 km/h 3.2 km/h 66% 0.0 mm 0.00 W/m2 CLR
03:20 19.8 °C 13.3 °C 1013.1 hPa ESE 1.6 km/h 3.2 km/h 66% 0.0 mm 0.00 W/m2 CLR
03:25 19.7 °C 13.2 °C 1013.1 hPa ESE 1.6 km/h 3.2 km/h 66% 0.0 mm 0.00 W/m2 CLR
03:30 19.6 °C 13.1 °C 1013.1 hPa ESE 1.6 km/h 3.2 km/h 66% 0.0 mm 0.00 W/m2 CLR
03:35 19.5 °C 13.0 °C 1013.1 hPa Calm   3.2 km/h 66% 0.0 mm 0.00 W/m2 CLR
03:40 19.4 °C 12.8 °C 1013.1 hPa Calm     66% 0.0 mm 0.00 W/m2 CLR
03:45 19.2 °C 12.9 °C 1013.1 hPa Calm   3.2 km/h 67% 0.0 mm 0.00 W/m2 CLR
03:50 19.1 °C 13.1 °C 1013.1 hPa ESE 3.2 km/h 4.8 km/h 68% 0.0 mm 0.00 W/m2 CLR
03:55 19.1 °C 13.2 °C 1013.1 hPa ESE 1.6 km/h 4.8 km/h 69% 0.0 mm 0.00 W/m2 CLR
04:00 18.9 °C 13.1 °C 1013.1 hPa ESE 1.6 km/h 3.2 km/h 69% 0.0 mm 0.00 W/m2 CLR
04:05 18.9 °C 13.3 °C 1013.1 hPa ESE 1.6 km/h 4.8 km/h 70% 0.0 mm 0.00 W/m2 CLR
04:10 18.8 °C 13.2 °C 1013.1 hPa ESE 1.6 km/h 3.2 km/h 70% 0.0 mm 0.00 W/m2 CLR
04:15 18.8 °C 13.2 °C 1013.1 hPa Calm   3.2 km/h 70% 0.0 mm 0.00 W/m2 CLR
04:20 18.7 °C 13.1 °C 1013.1 hPa Calm   1.6 km/h 70% 0.0 mm 0.00 W/m2 CLR
04:25 18.6 °C 13.2 °C 1013.0 hPa Calm   1.6 km/h 71% 0.0 mm 0.00 W/m2 CLR
04:30 18.6 °C 13.2 °C 1013.0 hPa Calm   3.2 km/h 71% 0.0 mm 0.00 W/m2 CLR
04:35 18.4 °C 13.1 °C 1012.9 hPa East 1.6 km/h 4.8 km/h 71% 0.0 mm 0.00 W/m2 CLR
04:40 18.3 °C 13.0 °C 1013.0 hPa NW 1.6 km/h 3.2 km/h 71% 0.0 mm 0.00 W/m2 CLR
04:45 18.3 °C 12.9 °C 1013.0 hPa NW 1.6 km/h 3.2 km/h 71% 0.0 mm 0.00 W/m2 CLR
04:50 18.2 °C 12.6 °C 1013.0 hPa Calm   3.2 km/h 70% 0.0 mm 0.00 W/m2 CLR
04:55 18.1 °C 12.5 °C 1012.9 hPa NW 1.6 km/h 3.2 km/h 70% 0.0 mm 0.00 W/m2 CLR
05:00 18.0 °C 12.4 °C 1012.9 hPa NW 1.6 km/h 3.2 km/h 70% 0.0 mm 0.00 W/m2 CLR
05:05 18.0 °C 12.4 °C 1013.0 hPa Calm   3.2 km/h 70% 0.0 mm 0.00 W/m2 CLR
05:10 17.9 °C 12.6 °C 1013.0 hPa NW 1.6 km/h 4.8 km/h 71% 0.0 mm 0.00 W/m2 CLR
05:15 18.0 °C 12.9 °C 1012.9 hPa NW 3.2 km/h 4.8 km/h 72% 0.0 mm 0.00 W/m2 CLR
05:20 18.0 °C 12.9 °C 1012.9 hPa NNW 3.2 km/h 4.8 km/h 72% 0.0 mm 0.00 W/m2 CLR
05:25 18.0 °C 12.9 °C 1012.8 hPa NNW 3.2 km/h 6.4 km/h 72% 0.0 mm 0.00 W/m2 CLR
05:30 18.2 °C 13.7 °C 1012.8 hPa NNW 1.6 km/h 6.4 km/h 75% 0.0 mm 0.00 W/m2 CLR
05:35 18.3 °C 14.0 °C 1012.8 hPa NNW 1.6 km/h 4.8 km/h 76% 0.0 mm 0.00 W/m2 CLR
05:40 18.3 °C 14.2 °C 1012.9 hPa NNW 4.8 km/h 9.7 km/h 77% 0.0 mm 0.00 W/m2 CLR
05:45 18.3 °C 14.4 °C 1012.8 hPa NNW 1.6 km/h 12.9 km/h 78% 0.0 mm 0.00 W/m2 CLR
05:50 18.3 °C 14.6 °C 1012.9 hPa NNW 4.8 km/h 9.7 km/h 79% 0.0 mm 0.00 W/m2 CLR
05:55 18.4 °C 14.9 °C 1012.8 hPa Calm   8.0 km/h 80% 0.0 mm 0.00 W/m2 CLR
06:00 18.4 °C 15.1 °C 1012.9 hPa NNW 3.2 km/h 8.0 km/h 81% 0.0 mm 0.00 W/m2 CLR
06:05 18.3 °C 15.0 °C 1012.9 hPa North 3.2 km/h 11.3 km/h 81% 0.0 mm 0.00 W/m2 OVC
06:10 18.3 °C 15.2 °C 1012.9 hPa North 3.2 km/h 6.4 km/h 82% 0.0 mm 0.00 W/m2 OVC
06:15 18.2 °C 15.1 °C 1012.9 hPa North 3.2 km/h 8.0 km/h 82% 0.0 mm 0.00 W/m2 OVC
06:20 17.8 °C 14.3 °C 1012.9 hPa NNW 3.2 km/h 8.0 km/h 80% 0.0 mm 0.00 W/m2 OVC
06:25 17.3 °C 13.1 °C 1012.9 hPa NNW 3.2 km/h 6.4 km/h 76% 0.0 mm 0.00 W/m2 OVC
06:30 17.2 °C 12.3 °C 1013.0 hPa NNW 3.2 km/h 8.0 km/h 73% 0.0 mm 0.00 W/m2 OVC
06:35 17.2 °C 12.1 °C 1013.0 hPa NNW 1.6 km/h 8.0 km/h 72% 0.0 mm 6.00 W/m2 OVC
06:40 17.3 °C 12.0 °C 1013.0 hPa NNW 3.2 km/h 6.4 km/h 71% 0.0 mm 8.40 W/m2 CLR
06:45 17.4 °C 12.3 °C 1013.0 hPa NNW 3.2 km/h 6.4 km/h 72% 0.0 mm 10.80 W/m2 FEW
06:50 17.5 °C 12.4 °C 1013.1 hPa Calm   4.8 km/h 72% 0.0 mm 14.40 W/m2 SCT
Juneau County Weather
Compliments of Weather Underground - 12.5 mb

past weather